MOZHAETS 4 (RS-22)

Last updated on Thu Jan 15 2026 00:03:09 GMT+0000 (Coordinated Universal Time)

1 27939U 03042A 26014.66074144 .00000602 00000+0 10176-3 0 9999 2 27939 98.3380 194.7410 0012168 39.6521 50.4333 14.73073946192940
UTC large
Height (km)
Speed (km/s)
/
Latitude / Longitude
Inclination (degrees)
Orbital Period (minutes)
Azimuth
Elevation
Range (km)
Doppler Factor

Next 0 passes for location: London (51.5072 / 0.1276)

Sorry there are no passes over London.
MOZHAETS 4 (RS-22)